Location: Cañada de la Miga
(34.7595°N, 106.2317°W)
Time: 16:49:50
(UTC+00:00)

Transit 4A - Pass Details

Date: 15 December 2021
Orbit: 864 x 981 km, 66.8° (Epoch: 18 January)

Event Time Altitude Azimuth Distance (km) Brightness Sun altitude
Rises 00:57:31 0° 248° (WSW) 3,462 13.0 -12.5°
Reaches altitude 10° 01:00:43 10° 266° (W) 2,543 11.5 -13.2°
Maximum altitude 01:04:50 19° 311° (NW) 1,986 10.0 -14.0°
Drops below altitude 10° 01:09:04 10° 356° (N) 2,603 10.1 -14.8°
Sets 01:12:25 0° 13° (NNE) 3,573 10.7 -15.4°
